www.pogodaiklimat.ru

Погода и климат >> Архив погоды >> Россия >> Ростовская область >> Таганрог


ПОГОДА в Таганроге

АРХИВ ПОГОДЫ в Таганроге

Время (UTC), дата Ветер
(напр.,м/с)
 
Видим.   Явления Облачность Т
(С)
Тd
(С)
f
(%)
Тe
(С)
Тes
(С)
Комфортность P
(гПа)
Po
(гПа)
Тmin
(С)
Tmax
(С)
R
(мм)
R24
(мм)
S
(см)
18 10.07 С 2 20 км ясно +29.2 +13.5 38 +31 +31 жарко 1010.2 1006.6
21 10.07 С 3 20 км ясно +26.8 +10.4 36 +28 +28 жарко 1010.5 1006.8
00 11.07 С 3 20 км ясно +26.1 +11.8 41 +27 +27 жарко 1009.9 1006.2
03 11.07 СВ 3 20 км 1/1 1000 м
[Sc]
+25.9 +11.5 41 +27 +28 жарко 1009.3 1005.7 +25.5
06 11.07 СВ 3 20 км 6/0
[Ac trans Cc]
+28.7 +14.1 41 +31 +37 жарко 1008.7 1005.1
09 11.07 СВ 2 10 км 9/3 1500 м
[Cb cap Ac trans]
+30.8 +15.8 40 +33 +40 душно 1007.8 1004.2
12 11.07 С 6-11
{12}
20 км 8/3 1500 м
[Cb cap Ac trans Ci fib]
+30.8 +15.8 40 +33 +36 душно 1006.9 1003.3
15 11.07 С 6-14
{20}
20 км 3/3 1500 м
[Cb cap]
+26.0 +14.5 49 +28 +29 жарко 1007.6 1003.9 +31.9
18 11.07 СВ 3
{14}
20 км 8/4 1000 м
[Sc diur, vesp Ac trans]
+22.8 +15.1 62 +27 +27 душно 1009.8 1006.1
21 11.07 СВ 2 20 км ясно +23.3 +14.6 58 +27 +27 душно 1009.8 1006.1
00 12.07 С 3 20 км ясно +19.9 +15.4 75 +22 +22 комфорт 1010.2 1006.4
03 12.07 С 3 20 км ясно +20.9 +16.1 74 +25 +26 комфорт 1010.1 1006.4 +19.7
06 12.07 СВ 1 20 км ясно +27.6 +15.9 49 +31 +42 душно 1009.6 1006.0
09 12.07 Ю 3 20 км ясно +28.5 +18.5 55 +27 +42 жарко 1009.1 1005.5
12 12.07 ЮЗ 3 20 км 4/0
[Ci fib]
+30.8 +21.4 57 +39 +49 очень
душно
1008.7 1005.1
15 12.07 ЮЗ 2 20 км 9/0
[Ci fib]
+27.8 +21.9 70 +36 +38 очень
душно
1008.2 1004.6
18 12.07 С 2 20 км 9/0
[Ci]
+27.8 +13.5 41 +30 +30 жарко 1008.4 1004.8
21 12.07 С 2 20 км ясно +25.0 +16.1 58 +28 +28 жарко 1008.8 1005.1
00 13.07 С 2 20 км ясно +24.0 +16.1 61 +27 +27 жарко 1008.9 1005.2
03 13.07 С 2 20 км 3/0
[Ci sp]
+23.5 +17.0 67 +27 +28 душно 1008.8 1005.1 +22.2
06 13.07 ЮЗ 1 20 км 3/0
[Ci fib]
+28.6 +18.3 54 +33 +44 очень
душно
1008.7 1005.1
09 13.07 Ю 5 20 км 6/6 1000 м
[Cu med, cong]
+31.0 +20.3 53 +38 +41 очень
душно
1008.4 1004.8
12 13.07 ЮЗ 4 20 км 3/3 1000 м
[Cu med, cong]
+31.1 +20.3 53 +38 +44 очень
душно
1007.6 1004.1
15 13.07 ЮЗ 2 20 км 1/1 1000 м
[Cu med, cong]
+30.2 +18.5 50 +35 +38 очень
душно
1006.4 1002.8 +31.7
18 13.07 СЗ 2 20 км 3/0
[Ac trans Ci fib]
+28.5 +13.6 40 +30 +30 жарко 1007.0 1003.4
21 13.07 СЗ 2 20 км 1/0
[Ci fib]
+25.9 +15.0 51 +29 +29 душно 1006.8 1003.1
00 14.07 С 2 20 км 6/6 1000 м
[Sc]
+24.8 +14.7 53 +27 +27 жарко 1006.1 1002.4
03 14.07 С 3 20 км 6/3 1000 м
[Cb cap Ac cast Ci fib]
+24.0 +15.7 60 +27 +28 жарко 1005.5 1001.8 +23.9
06 14.07 штиль 0 20 км 6/3 1000 м
[Sc Ac cast Ci]
+31.2 +13.5 34 +32 +40 жарко 1004.9 1001.3
09 14.07 ЮЗ 4 20 км гроза без осадков 8/6 300 м
[Cb calv Ac cast]
+31.6 +17.7 44 +36 +39 очень
душно
1004.7 1001.1
12 14.07 ЮЗ 3 20 км {гроза} 4/3 600 м
[Sc diur, vesp Ac cuf Cc]
+31.7 +18.9 47 +37 +44 очень
душно
1003.4 999.8
15 14.07 СЗ 3 20 км 6/3 600 м
[Cu med, cong Ac cuf Cc]
+31.6 +12.3 31 +32 +33 жарко 1002.9 999.3 +33.9
18 14.07 С 5
{10}
20 км 8/4 600 м
[Sc diur, vesp Ac cuf]
+25.1 +13.9 50 +27 +27 жарко 1003.6 999.9
21 14.07 С 3
{10}
20 км гроза, ливневой дождь 10/10 300 м
[Cb cap]
+21.0 +17.7 81 +25 +25 комфорт 1004.2 1000.5
00 15.07 С 4 20 км {гроза, ливн. осадки} 8/3 600 м
[Sc Ac trans]
+20.4 +16.7 79 +24 +24 комфорт 1003.4 999.7
03 15.07 С 1 20 км 9/0
[Ac trans Ci fib]
+20.2 +16.5 79 +24 +25 комфорт 1003.6 999.9 +19.9 2
06 15.07 С 2 20 км 8/0
[Cc]
+25.7 +16.5 57 +29 +37 душно 1003.3 999.6
09 15.07 СЗ 2 20 км 8/0
[Ci fib]
+29.0 +14.5 41 +31 +46 жарко 1003.6 1000.0
12 15.07 ЮЗ 5 20 км 9/4 1000 м
[Cu med, cong Ci fib]
+28.6 +18.4 54 +33 +37 очень
душно
1003.0 999.4
15 15.07 ЮЗ 3 20 км 9/9 300 м
[Cb cap]
+27.1 +20.4 67 +34 +34 очень
душно
1002.5 998.9 +29.5
18 15.07 СЗ 2 20 км 9/9 300 м
[Cb cap]
+25.8 +14.9 51 +29 +29 душно 1003.4 999.8
21 15.07 С 2 20 км 4/4 1000 м
[Sc]
+24.4 +16.3 61 +28 +28 душно 1003.3 999.6
00 16.07 штиль 0 20 км 3/3 1000 м
[Sc]
+23.2 +18.0 73 +29 +29 душно 1002.8 999.1
03 16.07 С 3 20 км 8/5 600 м
[Sc Ac trans]
+22.1 +18.2 79 +27 +27 душно 1002.9 999.2 +22.1
06 16.07 В 1 20 км 9/9 300 м
[Cb cap]
+23.1 +19.1 78 +29 +30 очень
душно
1003.1 999.4
09 16.07 Ю 3 20 км 9/9 1000 м
[Cu med, cong Ci fib]
+26.2 +19.3 66 +32 +33 очень
душно
1002.4 998.8
12 16.07 З 4 20 км гроза без осадков {ливн. осадки} 10/10 300 м
[Cb cap]
+26.2 +18.1 61 +31 +31 очень
душно
1002.2 998.6
15 16.07 З 3
{10}
20 км {гроза, ливн. осадки} 10/10 300 м
[Cb cap]
+25.6 +16.8 58 +29 +29 душно 1002.6 998.9 +27.5 0.3
18 16.07 Ю 6
{11}
20 км {гроза, ливн. осадки} 9/4 300 м
[Cb cap Ci fib]
+22.8 +16.3 67 +27 +27 душно 1003.0 999.4
21 16.07 З 2 20 км 3/3 600 м
[Sc]
+22.8 +16.6 68 +27 +27 душно 1002.2 998.5
00 17.07 З 2 20 км зарница ясно +21.1 +14.4 66 +24 +24 комфорт 1001.8 998.1
03 17.07 З 2
{13}
20 км зарница 8/8 300 м
[Cb cap]
+21.7 +14.5 64 +25 +25 комфорт 1002.0 998.3 +21.0
06 17.07 ЮЗ 7-10
{14}
20 км 9/0
[Ci sp]
+24.3 +18.7 71 +29 +31 душно 1001.8 998.2
09 17.07 ЮЗ 8-12
{14}
20 км 4/1 1000 м
[Cu med, cong Ci fib]
+26.1 +18.9 65 +31 +34 очень
душно
1002.1 998.5
12 17.07 ЮЗ 6-12
{14}
20 км 4/3 600 м
[Cu med, cong Ci fib]
+27.8 +17.3 53 +32 +35 душно 1001.7 998.1

 

Местоположение метеостанции Таганрог (Ростовская область, Россия): широта 47.20 долгота 38.90 высота над уровнем моря 32 м.

В архиве по умолчанию представлена погода в Таганроге за последнюю неделю. Архивные данные за месяц целиком и за предыдущие месяцы, начиная с января 2011 года, Вы можете получить, выбрав интересующий диапазон дат из раскрывающегося списка и нажав кнопку "Ввод!".


*Определитесь, кто Вы:
робот инопланетянин человек

Внимание! Время в таблицах - всемирное. Для получения местного времени необходимо прибавить поправку, которая в Таганроге равна 3 ч.

Смотрите также архив погоды в соседних городах и на ближайших метеорологических станциях:

Погода в Маргаритово (Ростовская область, Россия) (30 км)
Погода в Матвеевом Кургане (Ростовская область, Россия) (41 км)
Погода в Ейске (Краснодарский край, Россия) (65 км)
Погода в Ростове-на-Дону (Ростовская область, Россия) (70 км)
Погода в Староминская (Краснодарский край, Россия) (75 км)
Погода в Аэропорту Платов (Ростовская область, Россия) (83 км)
Погода в Кущевской (Краснодарский край, Россия) (92 км)
Погода в Должанке (Краснодарский край, Россия) (106 км)
Погода в Мариуполе (Донецкая область, Украина) (108 км)
Погода в Зерноград (Ростовская область, Россия) (114 км)

Пояснения к столбцам:

Ветер - указаны скорость ветра в м/с - средняя за 10 мин, порывы в срок и между сроками (в фигурных скобках) и направление, откуда дует ветер: С - северный, СВ - северо-восточный, В - восточный, ЮВ - юго-восточный, Ю - южный, ЮЗ - юго-западный, З - западный, СЗ - северо-западный.
Видимость - горизонтальная дальность видимости в метрах или километрах. При видимости от 1 до 10 км при отсутствии осадков обычно наблюдается дымка, при ухудшении видимости до 1 км и менее - туман. В сухую погоду видимость может ухудшаться дымом, пылью или мглою.
Явления - указаны атмосферные явления, наблюдавшиеся в срок или в последний час перед сроком; фигурными скобками обозначены явления, наблюдавшиеся между сроками (за 1-3 часа до срока); квадратными скобками обозначены град или гололедные отложения с указанием их диаметра в мм.
Облачность - указаны через наклонную черту общая и нижняя облачность в баллах и высота нижней границы облаков в метрах; квадратными скобками обозначены формы облаков: Ci - перистые, Cs - перисто-слоистые, Cc - перисто-кучевые, Ac - высококучевые, As - высокослоистые, Sc - слоисто-кучевые, Ns - слоисто-дождевые, Cu - кучевые, Cb - кучево-дождевые. Подробнее классификацию облаков см. в Атласе облаков (PDF).
T - Температура воздуха - температура, измеренная на высоте 2 м над землей.
Td - Температура точки росы - температура, при понижении до которой содержащийся в воздухе водяной пар достигнет насыщения.
f - Относительная влажность воздуха - влажноcть воздуха, измеренная на высоте 2 м над землей.
Te - Эффективная температура - температура, которую ощущает одетый по сезону человек в тени. Характеристика душности погоды. При расчете учитывается влияние влажности воздуха и скорости ветра на теплоощущения человека.
Tes - Эффективная температура на солнце - температура, которую ощущает человек, с поправкой на солнечный нагрев. Характеристика знойности погоды. Зависит от высоты солнца над горизонтом, облачности и скорости ветра. Ночью, в пасмурную погоду, а также при ветре 12 м/с и более поправка равна нулю.
P - Атмосферное давление - приведенное к уровню моря атмосферное давление.
Po - Атмосферное давление - измеренное на уровне метеостанции атмосферное давление.
Tmin - Минимальная температура - минимум температуры воздуха на высоте 2 м над землей.
Tmax - Максимальная температура - максимум температуры воздуха на высоте 2 м над землей.
R - Количество осадков - Количество выпавших осадков за период времени, мм. При наведении курсора мыши на число - период времени, за который выпало указанное количество осадков.
R24 - Количество осадков - Количество выпавших осадков за 24 часа, мм.
S - Снежный покров - Высота снежного покрова, см. При наведении курсора мыши на число - состояние снежного покрова и степень покрытия местности в баллах.